This demonstration page uses our WeatherBlox Daily Observations layout. Learn more.

Left ArrowRight Arrow

34.74481, -87.66753

Hourly Observations for July 12, 2022

Temp ( °F °C ) Dew Point ( °F °C ) Humidity (%) Winds ( mph kmh ) Pressure ( in mb ) Visibility ( mi km ) Precip ( " mm )
12:53 am 00:53 Clear 78 25.6 71 21.7 79 79 SSE 3 6 29.91 1013 10 16 0.00 0.00
1:53 am 01:53 Clear 75 23.9 71 21.7 88 88 ESE 3 6 29.89 1012 10 16 0.00 0.00
2:53 am 02:53 Clear 74 23.3 71 21.7 91 91 ESE 3 6 29.88 1012 10 16 0.00 0.00
3:53 am 03:53 Clear 74 23.3 71 21.7 91 91 Calm 29.88 1012 10 16 0.00 0.00
4:53 am 04:53 Clear 73 22.8 71 21.7 94 94 E 3 6 29.89 1012 10 16 0.00 0.00
5:53 am 05:53 Sunny 73 22.8 71 21.7 94 94 E 3 6 29.90 1013 7 11 0.00 0.00
6:53 am 06:53 Sunny 75 23.9 72 22.2 90 90 Calm 29.91 1013 9 14 0.00 0.00
7:53 am 07:53 Sunny 79 26.1 73 22.8 82 82 SE 3 6 29.92 1013 10 16 0.00 0.00
8:53 am 08:53 Sunny 82 27.8 73 22.8 74 74 SSE 6 9 29.93 1014 10 16 0.00 0.00
9:53 am 09:53 Sunny 86 30 74 23.3 67 67 VRB 3 6 29.93 1014 10 16 0.00 0.00
10:53 am 10:53 Partly Cloudy 88 31.1 74 23.3 63 63 SSE 6 9 29.93 1014 10 16 0.00 0.00
11:53 am 11:53 Mostly Sunny 90 32.2 72 22.2 56 56 VRB 3 6 29.94 1014 10 16 0.00 0.00
12:53 pm 12:53 Mostly Cloudy 92 33.3 71 21.7 51 51 Calm 29.92 1013 10 16 0.00 0.00
1:53 pm 13:53 Sunny 93 33.9 69 20.6 46 46 Calm 29.91 1013 10 16 0.00 0.00
2:53 pm 14:53 Sunny 93 33.9 71 21.7 49 49 VRB 3 6 29.90 1012 10 16 0.00 0.00
3:53 pm 15:53 Partly Cloudy 93 33.9 71 21.7 49 49 SSE 3 6 29.88 1012 10 16 0.00 0.00
4:53 pm 16:53 Mostly Cloudy 95 35 71 21.7 46 46 S 5 7 29.88 1012 10 16 0.00 0.00
5:53 pm 17:53 Mostly Sunny 93 33.9 72 22.2 50 50 S 5 7 29.86 1011 10 16 0.00 0.00
6:53 pm 18:53 Mostly Sunny 91 32.8 71 21.7 52 52 S 6 9 29.85 1011 10 16 0.00 0.00
7:53 pm 19:53 Partly Cloudy 88 31.1 73 22.8 61 61 S 7 11 29.86 1011 10 16 0.00 0.00
8:53 pm 20:53 Mostly Cloudy 85 29.4 74 23.3 70 70 S 5 7 29.89 1012 10 16 0.00 0.00
9:53 pm 21:53 Partly Cloudy 85 29.4 74 23.3 70 70 SSW 3 6 29.92 1013 10 16 0.00 0.00
10:53 pm 22:53 Cloudy 83 28.3 74 23.3 74 74 SSW 5 7 29.92 1013 10 16 0.00 0.00
11:53 pm 23:53 Clear 82 27.8 73 22.8 74 74 SSE 5 7 29.92 1013 10 16 0.00 0.00

Powered by AerisWeather